Theta_e
302 302 302 301 299 297 297 297 297 297 299 301 302 303 306 306 308 310 310 312 314 311 314 322 322 320 319 317 316 317 316 317 316 315 315 315 315 317 317 319 320 320 321 321 322 323 321 322 324 323 324 324 324 324 324 322 325 325 323 324 326 332 333 323 320 325 328 327 329 330 328 326 325 327 328 327 330 330 329 335 336 327 324 329 326 322 340
302 302 302 301 299 298 297 297 297 297 299 302 304 305 307 306 309 311 312 314 315 312 315 322 324 322 321 319 320 319 318 318 317 317 317 316 317 317 317 319 321 322 324 322 321 322 322 322 323 323 325 326 325 324 323 324 325 324 324 327 326 326 329 326 320 321 322 324 326 326 326 327 328 331 329 327 332 332 335 342 335 325 328 330 325 325 342
302 301 301 301 300 298 297 297 297 297 298 301 304 306 307 308 312 314 314 317 316 314 315 317 319 321 320 318 319 318 319 319 319 320 320 319 319 318 318 319 321 323 324 321 322 322 321 322 323 325 328 330 330 325 321 323 325 324 326 329 325 327 333 327 320 319 320 320 324 325 327 330 331 333 328 327 332 328 330 335 325 323 330 331 330 334 343
302 302 302 301 300 299 298 297 297 297 298 300 303 306 307 310 315 317 314 315 315 314 314 312 313 316 316 318 319 318 319 320 319 321 321 321 320 318 319 320 320 323 323 322 323 323 324 325 326 328 331 334 337 331 325 324 323 325 332 330 327 336 339 328 323 324 321 324 335 340 336 330 325 327 327 327 330 327 334 334 325 330 334 331 342 351 339
302 302 302 301 301 300 299 298 297 298 298 299 303 307 308 311 317 316 314 316 315 314 313 311 312 313 314 318 320 317 318 318 319 321 322 321 320 319 320 319 320 324 325 325 325 326 328 328 327 331 335 338 337 331 329 326 322 330 338 332 330 335 332 327 329 328 324 331 342 341 334 327 324 326 326 326 328 327 331 331 329 338 332 325 351 364 338
302 303 302 300 301 301 300 298 298 298 297 299 304 308 310 314 317 315 314 316 316 315 314 313 312 313 315 318 319 316 317 318 319 321 320 319 319 320 322 321 320 322 325 330 333 332 331 330 332 339 342 340 338 334 334 330 327 334 338 332 334 332 325 325 328 327 327 330 332 331 331 328 327 329 326 326 329 327 326 328 334 340 329 325 350 362 342
302 302 301 300 301 301 300 298 298 298 297 300 307 310 311 313 314 314 314 315 314 314 314 314 314 315 317 321 321 318 319 320 319 318 318 318 318 320 323 325 324 322 327 338 343 338 332 331 337 344 341 336 336 337 338 332 330 333 334 334 334 328 328 332 326 323 327 327 326 328 328 327 326 327 327 326 327 327 326 330 335 337 333 333 349 357 349
302 302 301 301 301 301 301 299 299 299 298 300 307 310 309 309 310 311 313 313 313 314 313 314 316 315 317 323 324 319 319 320 317 315 316 316 317 320 325 327 327 325 329 338 340 338 336 335 336 338 335 334 338 340 339 335 331 331 333 336 331 324 335 343 329 322 324 325 327 328 326 327 326 325 329 328 325 326 325 327 334 334 332 337 344 347 348
302 301 301 301 301 301 301 300 300 300 299 299 303 306 306 307 308 310 311 312 314 315 313 313 315 317 319 321 320 316 317 318 315 315 316 317 317 321 325 326 326 327 330 335 336 334 336 335 332 330 329 331 336 337 337 334 332 333 336 337 332 328 336 340 329 321 323 323 326 328 327 328 325 323 328 326 324 328 328 328 335 334 332 337 339 337 341
302 302 302 301 301 301 301 301 301 302 301 300 301 303 304 305 307 309 310 312 313 313 312 312 315 319 319 316 313 313 315 316 315 316 319 318 318 320 322 324 329 335 335 333 330 327 326 328 328 326 327 328 328 330 332 331 331 335 338 338 340 336 334 334 330 322 322 325 326 328 328 324 325 331 334 331 333 337 337 337 341 339 341 342 336 333 340
303 303 302 301 301 301 301 301 302 302 302 301 301 302 302 304 306 307 309 312 311 311 311 312 314 315 314 311 310 311 313 314 314 315 317 317 317 320 321 321 328 340 337 327 324 322 322 324 325 325 325 325 327 328 329 331 331 332 335 337 344 345 338 335 332 323 323 329 329 327 325 322 332 346 344 337 338 339 339 338 338 341 347 348 340 336 345
303 303 303 302 301 301 301 301 302 303 302 301 301 301 301 302 305 307 310 311 311 310 311 311 311 311 311 311 310 311 312 314 313 313 315 316 317 319 321 321 325 333 332 325 323 323 324 327 331 333 330 328 331 331 330 332 332 330 331 332 339 344 340 335 335 330 329 331 327 322 322 328 341 347 339 335 336 336 339 339 338 341 346 352 351 345 345
303 303 303 303 302 301 301 302 302 302 303 302 301 301 300 301 304 307 309 311 311 310 310 311 310 310 311 310 310 311 313 313 312 312 314 316 318 319 321 322 321 323 326 324 323 324 330 340 344 343 341 339 338 336 333 333 334 333 333 332 337 346 346 339 337 335 331 327 323 321 326 336 345 341 337 338 336 337 340 338 337 339 340 346 353 347 344
302 302 302 303 303 302 302 302 302 302 303 303 302 301 300 300 303 306 307 310 311 311 311 311 310 310 311 310 311 311 312 311 310 311 313 315 318 320 320 321 319 321 325 325 323 326 335 347 351 345 341 340 338 339 341 337 334 336 335 333 334 343 352 348 335 331 335 333 326 326 329 334 341 342 339 336 334 338 342 338 335 337 336 340 346 344 343
302 302 302 302 303 303 303 303 303 303 303 303 303 302 300 300 303 305 307 309 310 310 311 310 311 311 311 310 311 311 311 310 309 310 313 315 318 319 317 317 319 324 326 325 327 334 339 340 341 338 335 333 333 338 344 338 333 334 333 332 331 334 346 349 336 333 342 339 328 327 328 329 340 348 341 333 330 333 341 342 338 336 335 336 341 341 340
302 302 302 302 303 303 303 303 303 304 304 303 303 302 301 300 302 305 307 308 309 310 311 310 310 311 310 310 311 310 310 311 310 311 314 316 316 315 313 315 319 324 328 329 331 337 339 338 337 338 337 336 335 339 341 336 333 335 334 334 336 336 340 344 338 337 344 341 332 330 331 333 341 344 336 333 331 331 338 342 339 337 335 333 338 342 340
302 302 302 302 302 303 303 304 304 304 304 304 303 302 302 301 302 305 307 307 309 310 310 309 310 310 310 311 311 310 310 311 311 312 314 314 314 314 312 314 320 323 328 337 339 335 334 336 337 337 340 340 336 337 338 336 334 335 336 338 344 347 346 341 335 336 343 343 336 331 332 336 338 337 333 331 331 333 336 336 334 337 336 331 335 341 338
302 302 302 302 302 303 303 304 304 304 304 304 303 303 302 302 303 304 305 306 308 309 309 309 310 310 310 311 311 310 310 310 311 313 314 313 315 316 311 311 320 323 326 337 340 334 332 334 331 330 336 338 336 338 340 338 337 337 338 341 347 350 351 347 341 337 340 341 334 329 333 338 336 333 331 330 334 341 340 334 334 337 334 331 333 333 333
302 302 302 302 302 303 303 303 304 304 304 303 303 303 302 302 302 304 305 307 308 309 309 309 309 309 309 309 310 310 310 310 310 313 315 316 315 313 311 315 321 322 324 333 337 333 334 337 334 330 332 334 337 341 340 340 345 343 338 340 343 344 347 350 346 339 337 341 338 331 333 337 333 330 331 333 343 348 339 333 335 335 332 333 333 331 333
302 302 302 302 302 302 303 303 303 303 303 303 303 303 302 302 302 304 306 307 307 308 308 308 308 308 308 308 309 310 310 309 309 310 314 316 312 310 316 323 324 322 326 333 336 333 333 336 336 333 332 334 337 338 336 338 342 340 339 342 343 342 343 343 341 340 342 345 343 338 337 336 332 335 341 342 343 341 335 333 335 334 333 335 334 334 335
302 302 302 302 302 303 303 303 303 303 303 303 303 303 303 302 302 304 305 306 306 307 307 307 307 308 308 308 309 309 309 309 308 308 309 311 310 310 314 318 319 323 328 330 333 331 328 331 334 332 332 337 338 334 334 337 335 335 341 344 342 343 347 342 338 343 348 346 344 343 341 335 331 335 341 338 335 334 333 331 332 331 332 333 332 334 334
302 302 303 302 303 303 303 303 303 303 303 303 303 303 303 303 302 303 304 305 306 307 307 307 307 308 307 307 307 308 308 307 308 309 308 307 309 310 311 312 315 322 325 325 329 331 326 326 331 331 332 336 335 332 336 337 335 337 343 340 335 340 346 341 336 340 344 343 343 341 335 330 329 331 331 330 330 331 330 329 329 329 329 329 329 329 329
302 303 303 303 302 303 303 303 303 303 303 303 303 303 303 303 302 303 304 305 306 307 307 307 307 307 307 306 307 308 309 310 311 312 309 308 309 310 311 313 315 320 321 319 322 327 325 324 328 331 333 335 333 335 340 339 340 343 344 339 335 336 338 338 337 337 336 335 335 334 331 327 328 329 328 328 328 328 327 327 327 327 327 327 327 327 327
302 303 302 302 303 303 303 303 303 303 303 303 303 303 303 303 302 303 304 305 306 307 307 306 307 307 306 306 308 311 312 312 313 313 311 310 310 310 311 314 314 316 317 315 316 320 322 323 326 329 333 335 335 337 338 338 341 344 341 338 339 337 336 340 340 338 338 337 336 334 332 329 327 327 327 327 327 327 328 328 327 327 327 326 326 327 327
302 302 302 302 303 303 302 303 303 303 303 302 303 303 303 303 302 302 304 305 305 307 307 307 307 306 306 306 309 312 313 312 313 314 313 312 312 311 312 312 312 313 314 314 314 315 319 325 329 328 330 333 334 335 335 333 335 339 339 339 340 335 334 339 340 339 341 340 335 332 330 327 327 327 325 325 326 326 327 327 327 328 329 327 327 327 327
302 302 302 302 302 302 302 302 303 303 303 302 302 302 303 302 302 302 303 304 305 306 307 307 307 305 305 308 310 311 312 313 314 314 313 312 312 312 312 310 310 311 311 311 313 313 317 325 329 329 329 330 329 334 337 334 332 338 340 337 334 334 335 338 340 341 341 337 334 332 330 327 326 325 324 325 325 324 325 325 325 326 326 326 326 326 325
302 302 302 302 302 302 302 302 302 302 302 302 302 302 302 302 301 302 303 304 305 306 307 307 307 306 305 308 311 312 312 312 312 312 312 311 310 311 311 310 310 310 310 310 313 315 318 323 326 328 330 329 325 328 333 331 332 339 339 331 330 336 341 339 337 338 340 338 335 333 331 329 326 324 323 324 324 324 324 324 323 324 324 324 324 325 325
302 302 302 302 302 302 302 302 302 302 302 302 302 302 302 301 301 302 303 304 305 306 307 307 308 307 307 308 311 313 313 312 311 310 310 310 309 309 310 311 311 310 310 311 313 318 321 322 322 325 327 326 325 327 329 330 334 337 333 328 329 334 338 339 339 338 338 335 331 327 326 325 323 323 323 322 323 323 323 322 323 323 323 323 323 323 323
302 302 302 302 302 302 302 301 302 302 302 302 302 301 302 303 303 303 304 305 305 306 307 308 308 308 308 309 311 312 313 313 312 312 311 310 309 309 310 311 311 311 311 311 313 317 321 320 318 320 322 323 325 328 330 334 336 331 326 326 329 331 332 335 335 335 332 329 325 322 322 322 321 321 321 321 321 322 321 321 322 322 322 322 323 322 322
302 302 302 302 302 302 301 301 302 302 302 302 301 301 303 306 306 305 306 306 305 306 307 307 308 308 307 308 310 312 313 313 314 313 311 310 310 310 311 311 311 310 311 312 312 316 319 317 316 317 317 317 321 327 329 331 331 325 320 321 325 329 330 329 326 326 326 323 322 322 322 322 322 322 321 321 321 321 321 321 321 321 321 322 321 321 322
302 302 302 302 302 302 301 301 302 302 302 301 300 301 304 307 307 306 307 306 305 306 306 306 307 308 308 309 310 313 314 314 313 312 311 310 310 311 311 311 312 312 311 312 313 314 316 317 318 319 317 315 321 327 328 329 328 323 320 320 321 324 326 325 321 322 322 321 322 322 321 321 322 322 321 321 321 321 321 321 321 320 321 320 320 321 321
302 302 302 301 302 301 301 301 301 301 301 301 300 301 305 307 307 306 306 306 305 306 306 307 308 309 310 311 311 313 315 314 313 312 311 311 311 312 311 311 312 312 312 313 313 313 314 316 318 318 315 315 321 327 325 322 322 321 319 320 320 320 321 321 320 320 321 322 323 324 322 321 321 320 320 320 320 321 321 320 320 320 320 320 320 320 320
302 302 302 302 301 301 301 301 300 301 301 300 300 302 305 307 306 306 305 306 306 306 306 307 308 310 310 311 312 314 315 315 313 311 311 312 312 312 312 312 312 312 312 313 313 313 313 314 315 316 316 316 322 326 323 320 319 319 319 319 320 319 319 320 320 319 320 321 322 323 321 320 319 319 319 319 320 320 320 320 320 320 321 320 320 320 319
302 302 301 302 301 300 301 301 301 301 300 299 300 303 306 306 306 306 306 306 305 305 306 306 308 310 311 311 314 316 313 312 313 311 312 313 313 312 313 312 311 311 313 313 313 313 315 315 315 317 319 319 320 323 322 320 317 317 317 318 319 319 319 319 319 319 319 319 319 320 319 319 319 320 320 320 319 320 320 320 321 321 321 320 320 320 319
302 301 301 301 300 300 300 300 300 300 300 300 302 304 306 307 306 307 306 306 305 305 306 307 308 310 312 315 318 317 311 310 312 312 312 313 313 313 313 313 312 312 312 312 312 314 317 318 318 319 321 321 321 321 321 318 317 317 317 317 317 318 318 318 318 318 318 318 318 318 318 319 320 319 319 319 319 319 319 319 320 320 320 320 320 319 319
301 301 301 300 300 301 301 301 301 301 302 304 305 306 307 307 307 306 306 306 305 305 306 308 309 310 313 317 318 316 312 312 312 312 312 313 314 314 313 313 315 315 312 312 316 318 318 319 320 319 319 320 320 319 318 318 318 317 317 317 317 317 317 317 317 317 318 317 318 318 318 318 318 317 317 317 317 317 318 318 319 319 320 320 320 320 319
301 301 300 300 302 303 304 304 303 304 305 306 306 306 306 306 306 305 305 305 305 305 305 307 308 309 311 313 315 314 313 314 314 313 313 314 314 313 313 317 321 319 315 316 320 320 318 319 320 320 319 319 319 318 318 318 318 318 317 317 317 317 317 317 317 318 319 318 318 318 317 317 317 316 316 316 316 316 317 317 318 318 319 319 320 319 319
301 301 301 302 304 305 306 305 305 305 306 306 306 306 306 306 305 305 305 305 306 306 306 307 307 307 307 310 314 314 313 315 317 318 316 315 315 315 315 317 320 320 318 319 320 320 320 320 320 320 320 319 319 319 319 318 318 318 317 317 317 317 317 317 317 318 318 319 318 318 317 317 317 317 317 317 316 316 317 317 318 318 318 318 319 319 319
300 301 303 303 304 305 305 305 305 305 306 305 305 306 307 307 307 307 307 307 308 308 308 308 308 306 306 310 314 314 313 316 320 322 320 318 317 317 316 316 317 319 319 319 318 319 322 322 321 321 321 320 320 320 319 318 318 318 317 317 317 317 317 317 317 317 318 317 317 317 317 317 317 317 317 317 317 317 317 317 317 318 318 318 318 318 318
301 302 303 304 304 304 305 305 305 305 305 305 306 306 306 307 309 310 310 310 311 310 310 311 310 308 308 311 313 313 314 317 319 320 321 319 316 316 318 318 319 321 322 320 319 321 322 322 321 322 321 320 320 319 319 319 318 318 318 318 317 317 317 317 317 317 317 317 317 317 317 317 317 317 317 317 317 317 317 317 317 318 318 318 318 318 318
302 303 303 303 304 304 305 305 306 306 306 306 306 307 307 308 309 309 309 311 313 313 311 311 312 311 311 311 311 312 315 316 315 317 321 320 316 317 321 320 320 323 322 319 319 323 323 322 322 323 321 320 320 319 319 319 318 318 318 318 317 317 317 317 317 317 317 317 318 317 317 318 318 318 317 318 318 318 318 318 318 318 318 319 319 319 319
303 303 303 304 305 305 306 306 306 307 307 307 307 308 308 308 308 308 309 311 313 312 310 311 312 313 313 312 312 312 314 314 314 316 320 319 316 318 323 324 322 321 319 317 320 324 324 323 323 322 320 319 319 319 319 319 318 318 318 318 318 318 318 318 318 318 318 318 318 318 318 318 318 318 318 318 318 318 318 318 319 319 318 318 318 318 318
303 303 304 305 305 305 306 307 306 307 309 308 306 307 308 309 309 310 310 310 311 310 310 310 311 313 313 313 312 313 314 314 314 316 318 317 315 318 323 325 322 318 317 319 323 324 323 323 323 321 320 319 320 319 319 319 319 319 319 318 318 319 319 319 319 319 319 319 319 319 319 319 318 318 318 318 318 318 318 318 318 318 317 317 316 316 317
303 303 304 305 305 305 306 307 306 306 308 308 307 307 309 310 311 311 310 310 312 313 312 311 312 314 315 314 313 314 314 314 314 315 316 317 319 320 321 322 320 317 319 323 324 323 322 321 321 319 319 320 320 319 319 319 319 319 319 319 318 317 317 317 318 319 318 318 318 317 317 318 318 318 318 317 317 317 317 317 317 317 316 316 317 317 317
304 304 304 305 305 305 306 307 306 306 308 310 309 308 307 308 310 311 311 310 311 313 313 312 312 314 315 314 313 314 314 315 315 315 316 319 321 319 318 318 319 320 321 322 322 322 322 320 319 319 319 320 320 320 319 319 319 319 319 318 317 316 316 316 317 318 317 317 316 316 316 317 318 318 317 316 316 316 316 316 317 317 317 317 317 317 318
304 304 304 305 306 305 305 307 308 308 308 309 308 307 307 307 308 309 310 310 311 312 313 313 313 314 314 314 315 314 313 314 316 316 316 319 320 316 313 316 319 320 321 322 322 323 322 319 318 319 319 319 319 319 317 317 318 319 318 317 317 316 316 316 316 317 317 316 316 315 315 316 317 317 316 316 316 316 317 317 317 317 318 318 317 318 318
304 304 303 305 306 306 306 307 307 306 306 307 308 308 309 308 308 308 310 311 311 312 312 312 314 314 313 314 315 313 312 315 319 317 315 319 320 316 315 318 319 320 322 323 322 321 320 319 318 319 320 319 318 317 316 316 317 318 318 318 317 316 316 315 315 316 316 316 316 316 315 315 316 316 316 316 316 316 317 317 317 316 317 317 317 318 318
304 304 304 305 306 307 306 306 306 306 307 309 310 310 310 310 309 310 311 311 311 312 312 312 314 315 314 313 316 315 313 314 317 315 315 318 319 316 316 319 320 319 321 321 321 320 320 319 318 319 319 318 317 316 315 316 317 317 317 317 317 316 316 316 315 315 315 316 316 317 316 316 316 316 316 316 316 316 316 317 317 316 317 317 317 318 319
304 305 305 305 306 306 306 306 306 307 309 310 310 311 311 311 310 311 312 312 312 312 312 311 313 315 313 312 316 318 315 314 315 316 317 318 318 315 317 320 321 320 320 321 320 320 319 318 318 318 317 317 316 315 315 316 316 317 317 317 317 317 317 317 316 315 315 315 316 317 317 317 316 316 316 317 317 317 316 316 316 316 317 316 316 317 318
304 304 304 305 307 307 306 307 308 309 310 310 310 310 311 311 310 311 313 312 311 311 312 311 312 313 314 313 315 316 314 313 317 320 319 317 317 318 319 321 321 321 321 320 320 319 318 318 317 317 316 316 316 315 315 316 316 316 316 317 317 317 317 317 316 316 315 315 316 316 316 316 316 316 317 317 317 317 317 316 316 316 317 316 317 317 318
303 304 304 306 307 307 307 308 309 310 309 309 309 310 311 310 310 311 312 311 311 313 315 313 312 314 317 316 314 313 311 313 317 319 318 316 318 320 321 321 320 320 320 319 318 318 318 317 316 316 316 316 316 316 315 316 316 316 316 315 315 316 317 317 316 316 315 315 315 316 315 316 316 316 316 317 317 317 317 317 316 316 317 318 318 318 317
303 304 305 306 307 306 306 307 308 308 308 309 309 309 310 310 310 311 311 311 312 313 314 312 313 317 317 313 310 311 314 316 317 318 318 317 317 319 320 319 318 319 319 319 318 318 317 316 315 315 315 316 316 316 315 316 316 315 315 314 314 314 314 315 316 316 315 315 315 315 315 316 316 316 315 316 316 316 316 317 317 317 317 317 318 318 317
Wind_Speed
24 24 24 21 19 19 20 22 23 26 30 30 29 29 22 13 11 10 5 9 14 8 3 3 2 3 5 5 6 8 5 3 3 5 7 5 4 5 5 6 8 6 4 6 6 2 4 5 4 5 7 9 14 19 24 25 17 10 7 8 8 5 4 5 6 6 6 8 7 5 5 6 6 7 6 7 6 6 6 5 5 4 3 3 3 3 6
25 25 25 23 20 19 18 20 21 23 26 28 28 26 19 18 20 12 4 4 11 7 2 4 3 3 6 6 7 10 8 6 7 7 6 5 4 4 4 6 6 2 3 8 7 3 2 5 5 7 7 8 17 24 30 28 16 9 9 9 9 7 3 5 5 5 6 7 6 5 3 3 4 4 5 7 8 8 5 3 4 4 5 6 5 5 6
24 24 25 25 23 21 18 18 20 20 22 24 23 20 17 17 15 10 8 7 5 7 1 1 2 3 4 4 5 6 7 8 10 9 8 9 8 5 6 7 6 3 3 8 9 4 3 5 5 7 7 7 11 15 25 27 15 14 20 19 16 9 4 6 7 7 8 7 6 6 3 3 3 3 7 9 10 11 7 4 5 4 4 5 6 5 6
23 23 24 24 24 23 20 18 19 19 20 22 21 17 12 8 4 6 10 9 2 4 3 6 4 3 3 4 4 3 3 5 9 11 9 11 11 8 8 9 8 6 5 6 8 6 5 5 6 8 8 5 6 11 16 21 21 23 26 23 15 4 3 8 10 10 10 8 8 7 4 5 5 5 9 10 11 13 8 5 5 6 5 4 6 6 5
21 21 22 23 24 24 21 18 18 18 19 21 20 15 7 3 2 3 6 7 5 4 4 8 6 4 4 3 3 4 4 4 6 7 5 9 11 7 7 8 8 6 5 5 5 5 5 7 9 9 7 4 6 15 14 12 21 23 19 18 11 3 3 10 12 14 14 11 11 7 4 6 9 8 10 10 11 12 10 7 7 7 8 6 8 6 8
21 21 22 23 22 24 23 19 17 17 18 19 16 10 4 3 5 7 6 4 2 3 6 9 8 6 5 3 3 4 5 4 4 4 6 11 12 6 4 7 11 11 9 6 4 1 5 8 9 7 4 4 7 11 10 2 5 8 8 11 8 4 5 9 11 14 16 13 14 11 5 5 7 7 11 13 12 13 13 11 10 10 10 9 8 9 10
21 22 22 21 21 23 23 20 17 17 17 16 11 6 4 4 6 9 8 5 5 9 13 13 9 7 6 4 4 4 4 4 4 4 4 7 8 6 4 7 11 9 10 7 3 3 2 5 7 4 4 6 4 5 6 5 7 5 4 8 6 4 5 7 10 13 14 13 15 15 11 9 8 7 10 13 14 16 16 13 11 12 11 9 10 13 12
22 21 21 20 20 22 22 19 17 16 16 13 7 4 6 7 6 9 11 8 10 14 13 8 6 6 5 3 3 4 4 4 6 6 5 6 7 7 7 9 11 8 7 7 6 7 7 4 6 5 6 6 2 1 3 4 7 8 3 3 4 7 6 5 8 8 10 11 13 13 12 13 12 11 12 11 11 12 13 10 9 9 8 5 8 10 10
21 20 19 20 20 20 19 18 17 16 16 15 8 4 8 10 6 7 9 7 7 9 6 4 4 4 3 2 3 6 5 6 10 9 8 8 7 6 9 11 9 7 6 7 8 8 8 8 11 12 10 8 7 5 3 3 7 7 4 3 3 6 4 2 7 5 7 9 12 13 9 8 10 12 14 11 8 7 7 6 6 7 7 6 7 6 8
19 19 19 19 18 17 17 17 16 15 15 15 11 8 11 12 7 6 7 5 5 5 4 3 3 3 2 4 6 7 8 10 10 7 6 10 13 12 12 10 5 3 3 3 1 4 6 10 16 19 19 18 17 15 13 9 5 4 3 3 3 4 4 3 6 5 7 7 10 10 6 4 6 9 10 9 7 7 5 2 1 4 6 7 6 7 7
19 19 18 18 17 16 16 15 14 13 14 14 12 10 12 13 11 10 7 4 4 5 4 2 2 2 6 10 10 9 11 11 9 5 3 8 16 20 17 10 4 2 3 7 14 18 15 14 18 22 22 22 20 18 16 12 8 7 4 3 3 3 6 5 5 6 6 6 8 8 5 6 7 6 5 6 7 10 10 4 1 1 4 6 5 6 3
19 19 18 17 16 15 14 13 12 11 13 14 13 12 11 10 10 10 6 4 4 5 3 3 4 5 10 13 12 10 11 12 12 11 8 9 15 21 17 9 3 3 9 19 23 20 13 8 10 14 14 14 13 12 9 8 8 8 5 4 5 3 5 4 3 4 4 4 8 8 6 7 5 5 2 5 11 15 13 7 4 4 3 2 1 4 4
20 19 18 17 17 14 12 12 12 11 12 13 13 12 10 9 9 8 7 6 5 4 4 6 10 12 13 12 11 12 14 17 18 16 13 10 11 15 13 8 7 13 21 25 20 12 5 1 2 5 7 5 3 5 6 7 8 8 5 3 4 4 4 2 1 2 3 4 5 7 6 3 3 5 4 4 7 11 12 8 8 8 7 3 3 3 5
20 18 17 17 16 14 12 12 11 11 12 14 15 13 11 9 7 7 8 6 4 5 6 7 9 9 8 9 10 11 12 15 15 12 9 9 9 10 14 15 16 20 24 20 12 4 1 1 2 2 4 4 3 3 5 4 5 7 5 3 2 3 4 2 2 1 4 5 2 3 3 2 3 3 2 2 2 2 7 6 3 4 5 3 2 4 4
19 18 17 16 15 14 13 13 12 12 12 14 16 15 12 9 6 7 8 7 5 8 8 7 4 6 8 11 11 8 7 8 8 9 9 9 8 10 16 20 20 21 18 9 3 1 2 1 2 2 1 3 2 2 3 2 4 5 4 3 3 1 2 4 3 1 2 5 4 2 3 1 3 5 4 3 7 6 3 6 1 3 8 7 2 7 8
19 18 16 15 15 14 13 13 13 12 13 14 16 16 12 7 5 6 8 8 6 5 6 6 7 11 11 13 12 7 5 4 5 7 6 5 10 16 23 25 19 18 15 4 2 3 2 2 2 3 3 3 3 2 1 0 3 6 5 4 7 7 3 3 5 2 2 5 5 3 2 2 4 7 9 10 13 10 1 5 2 6 12 11 7 6 6
19 18 17 16 16 15 13 14 13 12 13 13 16 17 13 7 5 6 8 9 8 10 17 19 18 15 8 6 8 7 5 5 5 4 3 6 12 18 26 28 19 16 16 6 2 3 2 2 1 2 2 3 2 2 1 1 1 5 7 7 8 7 5 4 5 4 4 5 3 2 2 1 4 7 11 16 15 6 6 4 2 7 13 11 12 10 8
18 18 17 16 16 15 14 14 13 12 12 13 15 18 14 8 5 6 9 10 8 12 20 18 13 10 7 5 9 10 8 7 4 2 5 8 8 11 21 22 14 13 15 6 2 3 2 1 2 2 2 3 1 3 2 2 2 1 4 4 4 4 4 3 3 4 5 5 3 2 1 2 5 9 14 17 12 8 8 4 4 6 11 12 20 19 18
17 17 17 16 15 15 14 13 12 11 12 12 15 18 14 9 6 6 8 11 10 12 19 17 15 20 21 17 17 16 13 11 8 4 3 3 6 18 21 11 3 8 10 5 3 3 2 1 3 1 1 2 1 2 2 2 3 2 0 1 2 2 3 3 2 3 3 4 3 3 1 2 6 14 15 12 7 4 4 3 1 6 10 17 23 23 25
17 16 16 15 14 14 12 13 12 12 12 12 13 17 15 9 6 6 7 11 12 19 29 28 25 28 25 18 17 16 13 12 10 4 1 4 13 21 14 2 3 7 6 3 3 2 1 2 3 2 1 3 2 1 1 1 2 2 2 1 0 1 1 2 2 1 3 4 4 3 1 5 13 16 10 8 5 5 8 9 9 11 15 22 25 24 26
16 16 15 14 14 13 12 12 12 12 12 11 12 16 16 9 5 7 9 11 13 17 22 19 15 18 20 20 23 23 21 21 19 13 10 14 17 12 3 2 6 4 1 2 2 1 2 2 2 2 2 3 2 1 0 1 2 3 4 3 2 1 2 2 0 1 3 3 1 2 4 9 13 7 5 6 9 14 19 17 13 14 19 24 26 25 26
15 15 15 14 14 13 12 12 12 11 12 11 12 15 16 11 7 7 10 13 16 20 24 23 25 29 31 30 30 29 29 28 26 23 21 20 18 12 9 9 8 4 2 3 1 1 3 2 1 2 3 3 2 2 0 2 2 1 1 3 2 1 3 6 3 1 3 4 2 3 4 6 8 18 20 18 21 23 23 22 19 18 21 25 27 27 26
15 15 15 14 13 12 12 13 13 12 11 11 12 14 15 14 10 8 10 14 18 24 30 32 33 35 33 27 22 19 19 19 19 21 22 19 14 13 12 9 5 3 2 2 2 2 1 1 1 2 3 3 2 2 2 1 0 1 1 2 2 3 6 8 5 2 4 6 4 3 2 3 13 25 26 25 26 23 23 26 25 21 22 24 25 24 24
14 14 15 14 12 12 13 13 13 12 11 11 12 14 15 14 10 9 10 11 12 16 21 24 26 25 22 18 12 9 10 13 13 13 15 18 14 9 6 4 4 4 3 3 2 3 3 0 2 1 3 3 1 2 2 2 2 1 2 2 1 2 4 5 4 4 5 4 4 4 5 5 11 22 26 26 26 23 21 22 20 17 18 20 20 19 18
14 14 14 13 12 13 13 13 12 12 12 12 12 13 15 14 11 10 9 9 9 9 8 13 20 18 13 15 15 10 8 10 10 8 11 18 19 14 9 7 7 7 6 5 4 4 4 1 1 2 4 5 1 1 1 1 2 2 2 2 1 2 4 5 5 4 5 5 4 4 11 12 13 20 25 26 27 25 23 22 21 17 14 15 16 16 14
13 13 13 13 12 12 12 12 12 13 12 13 13 13 15 15 11 10 10 9 10 10 6 9 17 17 13 15 15 10 8 11 12 12 13 16 17 16 15 13 10 8 8 7 4 1 3 1 1 1 2 4 3 2 2 2 3 2 1 1 3 1 3 5 6 5 7 8 8 7 11 14 15 18 21 24 27 28 25 23 22 20 16 13 13 12 12
12 12 12 12 12 12 11 11 12 13 13 13 13 14 16 16 12 11 11 8 7 7 5 6 15 21 22 19 12 7 8 12 13 12 14 14 13 15 16 14 12 10 9 6 3 3 4 1 0 2 3 5 6 4 2 1 1 1 1 5 6 2 1 2 5 7 5 3 5 7 8 6 8 14 19 22 25 26 25 23 21 20 18 14 12 11 10
11 11 11 10 10 10 10 10 12 12 12 13 13 15 17 15 10 9 10 10 9 9 7 12 22 27 25 17 9 6 7 11 13 14 15 14 14 15 15 15 14 13 10 5 2 3 3 2 2 3 4 4 5 4 2 1 3 2 2 7 7 2 3 3 6 8 4 4 10 17 15 9 8 16 22 24 25 25 26 26 24 22 18 15 14 14 14
10 10 9 9 9 10 10 10 11 11 11 12 14 15 13 8 5 8 9 7 8 11 13 17 20 18 15 12 9 7 6 8 11 13 13 13 13 14 14 14 15 13 8 4 2 1 2 3 5 5 4 5 3 1 2 4 3 3 7 11 9 7 12 16 16 12 8 10 18 25 24 19 18 23 25 25 25 26 27 26 24 21 18 16 15 16 16
9 9 8 9 10 9 10 9 9 10 10 11 13 12 6 1 5 9 10 5 2 7 10 9 8 12 17 17 12 8 6 8 11 11 11 11 12 11 10 11 13 13 9 5 3 2 2 3 6 6 6 6 4 2 1 3 3 3 10 16 15 13 17 23 25 22 19 19 23 26 27 25 24 26 27 25 24 25 26 24 21 19 17 15 15 16 17
9 8 8 9 9 9 9 9 9 9 10 10 11 9 3 2 5 10 10 6 4 7 8 7 9 15 18 15 10 7 4 6 10 11 11 10 10 9 8 9 10 10 9 6 4 3 3 4 4 4 5 4 0 3 3 3 3 3 11 17 20 20 19 21 25 29 28 27 26 27 26 24 21 21 24 25 23 22 23 22 19 17 16 15 15 16 16
8 8 8 9 9 9 9 9 9 10 11 12 12 11 6 3 6 11 9 5 7 9 7 6 7 7 7 9 12 9 4 6 8 11 11 10 9 9 9 9 9 8 8 5 3 3 4 4 4 4 5 6 3 3 3 4 4 3 8 15 23 26 26 24 23 22 20 17 17 19 22 23 23 22 21 21 19 19 20 20 18 16 14 14 15 15 16
8 8 8 8 8 8 8 9 10 11 12 13 13 12 7 2 4 9 8 6 9 9 6 4 3 2 4 10 14 5 5 7 8 11 11 9 9 9 9 10 10 8 7 6 3 2 3 4 4 2 8 13 8 3 4 6 5 5 8 15 21 27 32 31 28 26 23 19 17 18 19 20 22 21 19 17 17 17 16 15 14 12 11 12 13 14 15
8 8 7 7 8 8 9 10 11 11 12 12 9 8 4 2 1 4 7 8 9 7 5 4 3 2 5 9 9 2 4 5 9 11 8 7 9 9 7 8 8 5 6 7 3 1 3 4 1 3 8 11 8 4 4 6 10 11 13 15 17 23 30 31 30 29 28 26 25 24 22 19 17 16 16 16 17 16 14 12 12 11 11 12 13 13 13
7 6 7 7 8 9 9 10 11 11 9 6 4 5 3 1 1 2 4 6 6 4 4 4 4 2 4 5 4 2 4 2 6 10 7 6 9 8 6 5 3 2 5 5 1 1 2 3 5 5 4 5 6 5 3 5 10 14 18 20 19 20 21 21 22 24 23 21 21 21 18 14 13 14 16 16 16 15 14 14 13 12 12 12 13 13 13
5 6 6 6 7 8 8 6 6 5 4 1 1 2 2 2 2 3 5 7 8 6 4 3 3 2 2 3 3 5 8 6 3 7 7 6 6 7 6 3 1 2 4 2 2 4 6 7 7 4 4 4 5 5 6 8 11 15 19 22 23 21 18 14 14 17 18 17 18 18 16 15 15 16 16 16 16 16 15 15 14 14 13 13 13 13 13
5 5 5 5 6 6 3 2 2 2 2 1 1 1 3 4 5 6 8 9 11 11 7 4 3 4 4 4 4 6 7 5 2 2 4 3 3 6 6 2 1 3 3 4 3 5 11 14 10 5 5 6 6 8 12 14 14 16 18 20 21 22 21 17 13 12 11 12 15 18 17 16 16 16 15 16 16 16 16 17 16 14 14 13 13 13 13
4 4 4 5 6 3 1 1 3 4 3 2 2 3 4 4 4 4 6 7 7 8 8 5 4 6 5 5 5 6 6 4 3 2 1 1 1 2 3 1 2 3 3 4 4 6 9 9 6 5 5 6 9 13 15 15 15 17 18 19 19 19 19 18 17 16 15 14 17 20 20 18 17 17 16 15 15 15 15 15 14 14 14 14 14 15 15
3 4 5 6 6 4 3 4 4 4 2 2 3 3 2 3 2 2 4 5 3 5 7 6 6 8 7 5 6 7 5 3 3 3 2 2 2 0 1 1 1 2 3 2 2 4 5 3 2 4 4 3 7 12 13 15 17 18 18 17 17 17 16 17 18 18 17 14 11 12 14 14 14 14 14 14 14 13 13 14 14 15 15 16 16 17 17
3 5 6 8 8 5 3 3 3 3 2 1 2 2 2 3 3 3 3 3 2 4 7 5 5 10 12 11 7 4 4 4 3 2 1 2 2 1 0 1 0 2 4 3 4 6 5 2 2 3 2 3 6 11 13 15 17 18 18 17 16 15 15 15 14 12 11 8 7 7 8 8 9 10 11 12 12 13 13 13 13 14 15 16 16 17 17
5 7 8 9 8 6 3 2 2 3 2 1 2 1 1 3 4 3 3 1 1 3 5 4 2 6 11 13 11 5 4 5 3 2 1 2 3 3 1 0 1 3 3 3 4 5 4 3 3 3 2 4 8 12 14 16 17 19 20 19 18 17 15 14 11 9 8 7 7 7 6 7 7 8 9 9 10 11 11 12 12 13 14 15 15 15 15
7 8 8 8 7 5 4 3 2 2 2 1 1 1 1 2 2 2 2 2 2 2 4 5 4 4 3 5 6 3 3 6 6 4 2 3 4 3 1 0 2 3 3 2 2 3 3 3 4 3 2 4 8 12 14 15 16 18 20 19 18 17 15 12 11 10 9 8 8 7 7 6 6 7 7 8 8 9 9 10 10 11 12 12 13 13 14
6 6 7 6 6 5 4 3 2 2 0 0 1 2 2 1 1 1 1 2 3 1 2 5 5 2 3 3 2 2 3 5 6 5 2 2 4 3 2 2 2 3 3 2 2 3 3 3 4 3 3 5 8 10 11 11 12 14 16 16 15 15 14 13 12 11 10 10 9 9 8 8 7 7 7 7 7 6 6 7 8 10 11 11 11 11 12
6 6 6 5 4 4 3 2 2 2 1 0 1 1 2 3 3 2 2 4 5 4 2 3 4 2 4 4 4 4 3 4 6 5 2 3 3 2 2 2 2 2 4 3 2 3 3 3 3 4 5 5 7 8 9 9 9 11 13 15 16 16 16 16 15 14 13 12 11 11 10 9 8 8 7 6 5 5 4 5 6 8 9 9 9 10 11
7 7 6 4 3 4 3 2 2 2 1 0 0 0 1 3 3 3 4 7 8 7 7 3 4 7 5 4 4 4 4 4 4 3 1 1 3 2 1 1 2 2 3 3 2 3 4 3 2 3 4 5 7 8 9 10 10 11 14 17 19 19 19 19 17 16 14 14 13 13 11 10 8 8 8 8 8 7 6 5 6 7 7 7 8 10 11
7 6 5 2 2 4 3 1 2 2 1 1 4 4 2 2 3 5 8 12 13 12 11 8 4 7 6 4 2 3 4 4 3 1 1 2 2 1 2 4 4 2 2 2 3 3 3 1 1 2 4 6 8 8 9 11 12 13 15 17 18 19 19 19 17 15 14 14 13 13 12 10 9 9 8 8 8 8 7 7 7 8 8 9 10 10 10
5 5 4 1 1 3 2 1 2 3 5 6 7 6 4 3 5 6 9 12 13 11 9 7 3 6 7 4 2 3 5 4 2 2 2 3 2 1 3 4 3 2 2 3 3 3 2 1 1 2 4 6 8 9 10 12 13 14 16 17 17 17 17 17 16 15 13 12 12 12 11 10 9 8 8 7 7 7 6 6 7 8 9 11 11 9 9
5 5 4 2 0 1 2 4 6 7 6 6 9 11 10 7 8 9 9 10 11 10 8 5 3 4 5 5 3 2 3 4 3 2 2 2 2 2 3 3 2 2 2 2 2 2 1 1 2 3 5 6 7 9 11 12 13 14 15 15 16 16 16 16 15 14 13 12 11 11 11 11 11 10 9 8 8 7 6 6 7 7 8 9 9 7 7
7 4 3 1 1 1 5 8 8 7 12 18 20 19 17 14 14 15 14 11 9 9 9 7 5 2 2 3 3 2 3 3 2 1 3 3 3 2 2 2 3 3 2 1 0 1 2 2 3 5 5 5 6 9 10 11 11 12 13 14 14 15 14 15 15 14 13 12 11 11 11 11 12 12 11 10 10 10 9 8 7 6 6 7 7 5 5
7 4 3 3 2 5 9 10 6 5 12 18 20 20 19 18 19 20 19 14 11 11 10 8 6 3 1 2 3 2 2 2 1 2 3 4 2 2 2 3 3 1 1 1 2 3 3 4 5 5 5 5 6 8 9 10 11 11 12 12 13 12 12 13 14 14 13 12 11 11 12 12 11 11 11 10 10 10 10 9 8 7 6 7 6 5 5
6 4 5 6 6 6 9 8 3 2 6 11 14 16 17 18 20 20 18 16 16 13 7 4 4 3 3 3 3 1 2 2 3 3 3 2 1 2 3 3 2 2 3 5 5 5 5 5 5 5 5 5 6 6 8 9 10 10 11 12 13 12 11 10 11 12 12 12 10 10 11 11 10 10 11 10 10 10 10 10 9 9 8 7 7 7 7
5 5 5 8 11 13 12 9 5 6 10 13 14 16 17 18 19 18 17 18 17 12 5 4 3 3 3 2 1 1 2 3 3 3 2 2 2 2 2 3 4 5 6 7 6 5 5 4 5 5 5 5 4 5 6 8 8 9 10 11 13 12 11 10 9 9 10 10 9 8 8 9 9 10 11 11 11 11 12 11 11 11 10 10 9 9 8
Wind_Direction
323 323 324 326 329 332 334 338 342 345 343 342 341 341 343 336 304 300 300 261 265 285 308 281 271 233 264 280 274 271 266 258 273 273 274 272 248 240 237 238 240 236 258 270 264 276 277 255 244 260 263 249 238 225 210 206 201 178 182 199 189 171 148 177 233 268 267 263 274 272 226 181 188 220 197 168 175 168 162 176 176 181 189 135 127 223 260
323 324 324 325 327 329 332 336 340 347 350 348 344 339 333 322 308 302 351 303 247 227 239 264 250 261 273 277 278 270 257 253 259 249 236 235 237 250 250 240 233 227 305 283 280 348 305 262 272 281 279 268 256 237 213 205 200 184 188 179 174 192 175 156 196 245 262 272 283 283 267 168 192 228 189 179 181 157 137 117 133 188 209 160 155 221 245
321 324 324 324 326 327 329 334 337 344 349 346 341 333 325 323 310 294 339 353 232 215 262 318 278 293 297 297 286 275 267 259 262 266 259 249 245 252 262 253 238 222 265 280 292 312 269 276 302 292 287 290 283 253 220 209 199 195 197 176 161 182 192 161 184 212 219 224 229 233 230 189 217 223 185 184 176 162 154 121 138 205 226 157 160 211 250
318 322 322 323 325 325 327 332 334 339 345 342 336 328 320 324 312 297 326 344 288 254 359 41 19 336 345 323 271 257 273 277 289 292 272 256 250 240 246 251 241 225 225 262 293 291 263 283 302 291 289 284 299 298 259 223 208 208 198 173 154 156 191 178 185 204 210 208 217 219 176 166 201 207 196 195 186 176 160 124 162 187 164 176 209 196 207
315 317 318 320 323 324 325 331 332 334 342 341 332 322 308 284 294 340 337 333 334 334 18 39 18 312 310 303 261 284 297 295 306 293 275 295 294 265 234 237 229 208 193 206 241 268 302 313 298 282 277 270 294 311 303 231 217 223 202 169 153 122 191 191 189 203 211 208 214 215 159 178 201 195 194 200 194 182 166 166 187 160 141 217 246 188 176
312 313 315 317 320 321 322 329 332 331 339 342 333 318 282 260 315 351 352 315 324 354 334 337 329 299 292 275 248 279 286 290 315 296 301 316 310 283 239 250 243 217 183 165 199 274 354 323 298 284 283 317 319 317 329 342 243 251 210 177 158 141 203 200 190 208 216 214 220 222 204 210 218 202 197 196 190 186 186 192 183 154 166 219 221 177 187
308 311 315 317 320 319 320 327 331 331 339 347 348 336 310 297 307 327 338 320 293 296 297 302 307 303 305 285 248 268 289 303 316 311 320 317 299 287 282 285 280 241 180 149 137 121 72 299 287 295 311 312 320 316 312 340 12 5 220 193 164 165 223 197 183 211 222 215 224 230 228 236 245 234 216 202 190 189 193 195 178 169 191 207 178 179 202
306 310 316 318 318 317 319 327 331 333 339 347 10 33 352 340 319 318 329 320 290 286 288 298 311 308 303 270 264 319 321 321 328 318 303 290 286 300 296 287 297 282 206 160 146 159 167 225 260 281 311 306 290 295 268 285 338 344 309 220 184 198 227 190 165 205 230 216 219 227 228 235 240 241 237 220 196 193 199 194 173 179 206 191 152 177 218
308 310 314 315 315 316 321 327 332 336 339 344 357 13 348 342 327 312 318 303 283 287 297 322 317 294 287 276 338 346 326 322 328 310 283 277 279 299 302 289 290 281 231 172 146 157 170 201 236 250 262 262 256 263 270 304 329 327 324 321 253 207 223 175 143 179 234 218 212 217 215 225 242 249 246 228 192 186 203 190 168 185 193 149 121 167 232
311 311 311 313 314 317 319 324 331 336 339 343 343 335 343 349 341 326 320 289 282 308 323 332 300 270 334 354 348 330 306 312 320 305 303 316 310 309 310 301 301 293 238 173 71 313 267 242 255 264 261 257 257 257 260 267 279 281 282 297 258 180 176 171 147 178 238 222 193 188 174 187 244 250 234 213 181 157 143 96 104 170 161 144 157 208 229
311 310 309 312 315 317 315 317 327 332 331 335 333 325 338 346 334 328 327 280 283 321 335 325 295 308 347 340 330 316 307 312 318 307 314 316 308 308 312 316 323 266 260 313 323 314 296 273 277 280 266 255 254 253 254 256 247 240 241 271 284 188 177 196 169 174 230 220 158 142 153 197 235 255 218 179 148 130 116 89 345 177 144 161 204 239 218
306 306 305 307 311 313 311 311 317 322 320 323 321 314 324 338 327 315 306 274 290 322 323 283 276 307 320 315 310 309 304 302 303 299 284 276 288 298 305 320 330 284 307 321 322 319 308 284 289 291 269 249 250 255 262 277 277 262 231 227 265 232 190 209 178 158 204 184 138 144 199 220 249 304 296 122 116 115 106 87 39 15 28 126 119 304 267
301 302 300 300 303 307 307 306 308 311 310 312 312 309 313 327 320 298 284 281 281 286 299 292 287 291 295 296 300 303 297 297 302 296 278 269 283 293 300 308 300 304 317 321 321 325 330 326 337 310 290 283 306 298 280 278 283 280 263 226 225 200 174 165 101 131 159 150 157 185 208 239 333 348 360 62 97 106 93 59 19 6 355 8 69 347 303
295 298 299 297 297 300 300 298 300 303 304 305 306 305 308 318 312 286 280 281 270 280 294 295 293 292 296 307 311 306 303 308 314 308 288 280 283 286 296 305 311 320 324 318 312 327 74 56 42 1 308 325 9 331 295 276 270 273 282 296 256 177 152 120 68 114 143 135 171 187 126 50 334 336 358 345 309 128 109 88 21 348 337 320 133 93 46
289 291 295 295 293 292 291 292 294 298 302 304 302 300 304 312 304 278 275 273 282 291 271 247 285 340 336 321 314 311 316 321 324 319 303 291 285 293 309 317 327 335 331 308 288 50 115 123 89 122 270 280 223 252 313 324 297 283 269 285 310 22 149 146 123 99 112 107 111 110 84 114 242 273 291 307 306 290 147 115 99 336 348 346 75 102 91
286 287 290 291 289 286 283 285 289 293 296 300 300 298 299 305 297 276 274 273 277 281 240 233 307 330 319 306 304 303 307 321 329 319 309 312 312 314 323 330 339 350 344 322 133 56 74 155 151 153 189 226 202 208 262 164 304 303 306 345 10 19 31 111 101 64 53 93 116 139 135 190 251 288 303 320 322 310 28 85 17 330 347 1 38 60 69
285 286 286 286 286 283 279 280 284 288 291 294 297 297 298 304 295 278 279 275 261 261 264 273 296 308 299 293 306 306 300 314 330 321 306 321 313 315 328 337 347 2 360 357 99 42 50 154 164 150 197 231 186 168 199 132 33 319 327 352 10 12 2 36 66 63 65 83 97 122 136 248 299 308 310 318 325 351 83 103 262 319 343 19 63 59 43
283 283 283 283 282 280 279 279 280 284 288 291 293 294 297 299 287 276 279 277 268 270 271 273 288 296 278 279 298 298 301 313 331 334 300 295 291 313 326 328 337 1 4 11 73 34 37 208 245 189 208 265 200 157 182 148 135 269 313 343 359 359 355 29 82 78 60 74 82 54 183 251 307 313 312 320 339 50 89 160 226 323 353 48 77 78 74
280 280 280 280 279 279 278 279 282 284 284 285 288 292 294 292 283 274 272 268 261 265 268 266 273 279 279 282 285 282 288 297 295 306 309 275 311 329 325 312 318 352 348 359 37 23 25 311 292 254 230 288 281 155 165 148 150 172 132 22 8 1 350 359 59 72 59 89 86 18 284 237 322 319 324 348 25 91 118 153 116 22 35 67 75 77 81
279 279 278 277 278 278 277 279 282 282 282 281 284 289 293 293 274 248 257 272 274 275 276 274 272 275 277 278 275 275 286 293 284 279 223 259 311 330 338 356 359 342 336 358 17 9 1 320 305 323 318 287 284 268 162 145 159 160 142 120 82 124 84 6 359 41 70 77 57 48 208 292 325 323 330 17 55 138 123 100 80 61 65 72 72 73 76
277 276 277 277 277 277 279 281 283 284 283 280 280 286 291 294 269 244 260 277 278 277 279 275 270 277 279 275 272 274 277 276 272 269 271 281 299 320 356 309 315 315 302 343 337 331 343 303 271 307 304 280 289 292 171 102 146 159 146 137 131 155 165 144 266 335 78 88 77 150 215 296 336 12 80 68 85 111 108 98 87 73 70 71 70 68 69
274 273 274 273 273 275 277 279 280 283 283 279 279 283 287 290 286 273 271 269 260 260 266 271 278 283 281 277 279 279 276 275 275 272 266 270 282 282 267 279 294 276 277 319 216 152 355 330 269 306 290 280 320 330 114 115 136 188 108 114 125 203 173 135 107 6 94 126 170 197 242 304 44 88 99 92 93 99 96 90 87 79 75 73 69 66 64
274 273 273 273 274 277 277 276 276 277 280 281 279 279 285 291 293 288 278 271 267 270 272 275 280 282 282 284 286 278 272 276 281 272 255 248 263 277 270 271 292 302 322 15 143 156 64 337 285 298 276 276 355 7 11 78 184 281 39 83 104 143 136 113 99 80 73 66 38 23 6 24 79 92 97 97 97 94 86 83 81 76 73 71 66 62 59
277 275 274 275 276 277 277 278 278 278 281 282 278 278 285 291 295 300 294 282 284 289 285 278 276 275 280 291 284 257 262 280 283 269 240 225 234 263 273 279 321 331 354 39 65 106 109 207 279 313 294 288 64 62 3 334 312 332 85 72 54 122 112 91 109 138 104 60 332 345 16 25 73 89 94 96 95 92 85 81 75 66 60 56 53 52 47
279 276 273 272 272 274 278 279 280 281 282 281 278 278 281 284 287 296 296 290 295 303 303 290 281 273 279 287 272 252 268 279 262 234 216 219 229 241 256 287 312 312 314 337 5 60 82 61 305 11 319 303 340 67 253 250 296 342 95 115 190 157 129 113 124 125 103 133 180 91 60 50 62 84 92 92 90 88 82 76 72 65 52 41 40 40 35
275 274 274 273 272 275 277 278 280 282 281 280 278 277 279 282 280 273 271 279 286 280 272 283 283 283 293 292 276 259 263 258 237 221 219 226 234 244 259 278 290 291 301 313 317 99 109 94 35 56 321 301 307 289 230 230 292 327 59 333 309 236 137 126 127 109 89 116 154 133 81 59 58 75 85 89 91 91 86 80 75 70 63 50 40 35 32
275 274 273 272 273 275 277 279 280 280 280 281 281 280 282 282 271 255 253 261 275 272 259 274 287 296 305 299 277 242 237 235 228 225 225 229 239 247 255 265 273 281 295 299 265 160 128 104 284 185 223 282 299 288 225 216 313 45 35 339 340 19 112 109 118 118 110 127 164 145 116 79 66 81 87 91 95 95 92 89 85 79 77 71 64 61 52
274 273 272 271 275 278 280 281 281 281 284 286 286 286 285 280 263 237 233 239 253 262 275 291 293 300 307 300 265 218 217 225 228 230 230 234 241 242 246 256 264 270 279 278 229 146 134 166 206 195 211 267 295 294 289 6 35 55 349 333 343 47 128 130 116 115 124 146 127 118 113 107 92 91 91 93 95 93 90 90 90 89 86 80 74 70 61
271 272 273 275 276 278 280 283 284 285 287 290 293 295 290 277 238 206 203 218 253 265 279 293 292 291 298 294 265 236 229 230 232 232 230 230 231 231 240 251 252 252 257 258 234 195 179 212 227 226 219 208 202 261 349 36 47 349 336 349 7 69 107 111 110 106 104 112 110 105 101 95 89 87 88 88 89 89 88 87 86 86 83 78 73 69 62
272 269 272 276 276 278 282 284 285 288 288 291 298 301 299 161 168 188 187 174 235 265 276 290 289 292 302 301 289 273 255 232 225 224 222 218 218 222 234 242 240 240 246 244 235 240 256 249 247 250 250 232 199 157 85 93 106 341 355 16 40 76 97 102 105 104 101 102 103 102 99 94 88 83 79 76 76 79 81 80 79 80 80 77 73 68 61
271 266 269 274 275 279 284 283 284 286 285 287 292 287 266 143 159 184 188 189 232 271 284 280 278 293 302 300 297 305 285 224 215 217 217 215 210 213 226 232 231 231 229 225 237 253 256 255 253 263 285 289 137 108 107 119 116 22 11 34 61 80 87 92 99 102 101 99 96 92 88 84 82 77 70 66 67 69 72 73 72 71 72 69 65 60 54
268 266 269 272 276 280 283 283 283 279 277 280 274 254 233 179 169 184 193 223 263 281 292 285 282 291 292 300 312 312 254 215 219 217 220 223 213 209 220 229 232 233 228 223 244 255 246 246 250 272 326 353 31 82 66 70 81 29 25 52 71 81 85 87 90 94 99 101 96 85 72 66 70 71 67 67 69 67 68 69 66 62 60 56 52 49 44
264 266 270 275 283 286 283 283 282 276 279 282 264 233 208 129 159 189 208 254 278 284 279 273 296 281 262 306 325 326 176 193 213 212 220 231 219 211 219 223 226 233 229 223 235 262 261 263 257 309 25 36 53 93 64 41 14 360 42 67 74 79 83 83 79 79 81 83 88 92 85 75 74 73 72 71 67 61 60 62 57 48 42 35 33 33 30
265 269 276 284 289 287 282 282 281 277 280 280 254 211 180 35 358 212 225 247 266 275 258 243 270 283 281 308 331 20 158 184 193 199 218 229 212 206 203 203 211 221 220 224 243 275 262 276 326 44 30 30 43 71 60 19 360 11 42 60 69 78 82 80 76 75 74 74 78 83 86 87 84 74 66 63 57 50 46 43 35 27 24 22 20 18 14
267 279 292 295 293 290 287 283 279 277 278 274 226 184 174 183 230 225 241 251 259 266 252 239 241 265 300 313 334 14 2 332 198 201 208 199 198 200 184 170 188 217 207 213 247 354 305 343 40 42 2 6 37 53 36 358 1 23 41 48 54 67 74 75 76 77 75 76 77 74 73 79 76 61 51 47 42 35 29 24 18 13 12 10 6 1 355
287 298 300 297 299 303 300 286 273 276 289 315 115 155 191 216 248 266 266 262 257 256 268 284 266 253 291 299 298 328 341 337 240 206 199 183 188 198 188 160 161 201 177 145 45 19 22 47 66 47 360 29 54 33 18 21 23 32 41 46 51 58 61 67 84 88 82 76 73 66 60 60 56 47 39 33 26 18 12 7 4 0 357 352 349 345 339
301 308 310 316 322 322 317 306 310 326 335 334 304 280 257 251 259 265 262 260 257 251 254 273 279 267 267 269 289 324 335 329 303 188 182 176 175 184 182 166 179 177 116 64 71 70 60 65 79 75 45 61 64 41 37 41 38 37 43 48 53 57 57 58 67 76 70 56 46 39 36 38 36 30 22 16 11 4 360 360 359 355 350 344 338 335 329
316 328 334 337 335 331 352 4 334 320 313 295 297 308 287 251 245 251 245 242 246 242 232 229 255 268 266 263 286 312 321 316 332 36 112 87 42 171 172 161 177 163 95 71 110 103 68 55 61 72 66 60 50 44 43 44 42 42 45 47 48 49 50 48 44 44 45 41 27 18 16 16 15 11 4 360 356 351 348 347 344 340 336 331 325 322 319
342 348 345 339 332 321 326 333 311 288 289 294 292 297 266 213 217 235 216 206 215 223 213 213 241 248 239 242 282 304 315 327 346 15 49 35 16 82 163 196 207 133 94 81 103 90 71 46 36 64 67 38 30 35 37 39 43 45 44 44 43 42 42 43 42 43 48 49 33 17 12 8 1 355 348 342 339 335 332 329 329 328 326 322 318 316 315
354 349 339 332 332 332 331 319 295 290 319 309 267 271 240 215 218 204 182 185 228 216 200 203 249 249 237 231 246 299 353 7 350 352 37 31 5 19 118 239 190 91 85 73 61 68 80 94 56 49 46 2 12 25 32 36 40 43 44 45 45 42 39 39 39 38 40 36 20 5 1 355 348 344 341 337 334 331 327 325 324 322 318 314 313 312 313
356 347 336 330 334 346 358 346 310 310 316 272 237 261 249 221 227 220 191 181 282 235 206 199 256 258 239 226 225 248 346 0 352 1 39 1 358 26 71 226 39 68 87 105 86 75 77 84 69 58 36 8 14 23 32 36 39 42 44 44 43 40 38 36 34 31 26 21 13 4 355 349 345 343 338 334 332 330 327 326 324 320 315 310 306 303 304
351 341 336 335 342 356 3 1 350 326 300 263 264 288 249 220 242 247 207 201 254 237 195 197 231 268 255 220 218 249 348 3 7 20 34 357 354 21 83 261 37 70 103 154 109 72 64 77 80 74 50 34 34 34 36 39 43 47 48 46 45 45 45 45 46 45 40 34 28 20 12 5 357 348 341 333 327 321 318 318 319 319 317 312 305 300 297
352 345 345 349 0 12 6 351 350 349 310 134 30 326 311 330 313 259 225 263 292 310 158 202 234 287 21 22 3 16 31 23 21 28 38 351 343 9 52 34 35 71 84 72 59 65 67 75 84 93 93 72 55 46 44 47 54 56 53 50 52 53 53 52 53 50 45 41 36 29 23 17 9 359 350 338 326 318 312 311 316 321 322 319 315 310 304
4 1 354 345 345 358 357 338 337 349 342 26 64 24 342 339 322 309 340 332 323 342 352 251 224 117 52 5 359 26 37 32 35 36 14 345 358 25 53 31 8 49 61 56 62 80 76 70 81 101 105 89 68 58 56 57 59 59 57 55 53 52 50 49 49 48 46 44 40 33 27 24 20 17 15 10 3 354 340 332 333 331 328 327 329 329 327
9 3 358 347 339 354 1 350 343 346 328 184 195 305 343 343 311 296 324 327 326 345 3 10 119 104 67 3 7 29 6 11 49 61 357 14 34 28 28 49 36 44 58 61 64 79 82 76 82 97 93 75 63 61 58 55 54 56 56 54 50 47 45 44 45 48 47 43 37 32 27 27 30 33 34 33 31 25 18 11 4 353 346 348 349 347 349
5 4 10 29 359 354 358 358 354 359 3 328 327 324 343 354 289 285 316 337 348 2 5 1 51 84 63 20 24 28 1 8 52 55 14 74 77 22 39 66 56 40 66 86 75 76 87 101 109 85 70 60 55 52 49 50 52 52 51 50 48 46 43 42 43 46 45 39 34 32 31 34 38 38 35 33 31 29 29 25 17 11 8 5 1 2 9
2 0 10 41 344 343 1 25 340 303 284 306 336 5 48 33 336 325 340 350 356 2 355 338 6 69 61 39 29 18 9 21 40 359 11 77 110 31 46 65 53 10 53 78 82 91 120 185 171 86 60 52 50 46 44 48 50 49 48 48 46 44 43 40 38 39 39 36 35 36 40 44 44 39 32 26 19 17 20 18 13 13 16 15 14 18 21
4 4 10 29 72 354 344 321 305 300 312 352 18 37 47 24 351 354 5 358 351 358 3 2 34 65 43 24 27 15 2 19 32 357 356 63 92 46 46 64 59 31 52 74 99 130 166 187 122 83 60 48 45 44 45 49 49 45 43 42 41 40 41 37 33 32 33 33 33 39 46 50 50 47 44 35 23 18 18 12 5 9 18 19 20 24 15
14 14 5 341 212 319 331 315 300 328 16 27 29 30 27 14 3 9 18 16 12 19 26 28 38 43 351 356 29 37 359 9 29 1 8 41 61 58 59 76 76 64 58 53 147 160 159 125 85 71 57 50 51 51 50 49 42 35 33 34 34 34 35 33 30 29 28 29 31 35 39 44 47 50 49 43 33 29 29 24 16 12 8 4 5 6 360
19 14 6 12 8 346 343 337 325 353 16 17 16 14 14 12 11 15 21 27 36 44 44 38 36 35 359 10 37 33 344 351 43 47 32 36 47 60 72 82 85 87 127 157 145 140 128 97 72 62 56 56 58 55 50 42 33 28 29 29 27 26 26 27 27 27 27 28 32 35 37 41 47 50 51 49 42 37 37 36 33 25 13 4 3 6 6
18 12 16 28 30 7 349 345 337 323 342 347 352 359 7 12 13 15 23 35 43 47 42 15 2 17 36 42 42 16 337 7 42 50 39 30 28 49 72 89 101 111 125 127 122 112 95 74 60 52 50 54 55 50 42 36 31 30 31 30 27 25 22 20 22 25 28 29 31 35 43 51 55 54 52 53 52 48 46 44 40 35 28 21 17 15 15
12 7 15 24 20 9 360 353 341 327 330 339 350 2 13 18 17 19 30 41 44 39 16 348 16 57 62 31 346 330 23 35 39 35 30 31 29 36 67 111 123 124 130 129 114 90 74 61 43 31 30 38 43 37 31 29 30 31 30 28 27 27 25 20 17 22 28 31 33 39 51 61 64 60 53 51 49 49 48 45 40 37 33 27 23 21 21